{"data":{"norad_id":67367,"intl_designator":"2026-004E","name":"LEMUR-2-SONNENBLUME","alt_names":[],"object_type":"PAYLOAD","status":"ACTIVE","operator":null,"country":"US","launch_date":"2026-01-11","launch_site_code":"AFWTR","launch_vehicle":null,"mission":null,"orbit_class":"UNKNOWN","rcs_meters":null,"size_class":null,"mass_kg":null,"dimensions":null,"purposes":["earth_obs"],"wikipedia_slug":null,"has_3d_model":false,"image_url":null,"decayed_at":null,"tle_current":{"epoch":"2026-09-19T23:10:59.212704Z","epoch_age_seconds":67983,"freshness":"FRESH","line1":"1 67367U 26004E   26262.96596311  .00001650  00000+0  18240-3 0  9998","line2":"2 67367  97.8060 260.0691 0007704 179.5133 180.6093 14.88723434 37395","mean_motion":14.88723434,"eccentricity":0.0007704,"inclination_deg":97.806,"raan_deg":260.0691,"arg_perigee_deg":179.5133,"mean_anomaly_deg":180.6093,"bstar":0.0001824,"rev_number":3739,"period_min":96.727166854015,"perigee_km":596.54560068902,"apogee_km":607.30047719702,"semimajor_km":6980.060038943,"source":"CELESTRAK","updated_at":"2026-09-20T09:00:34.881842Z"}}}